Regional Weather Roundup
Issued by NWS

Home | Current Version | Previous Version | Graphics & Text | Print | Product List | Glossary On
Versions: 1 2 3 4 5 6 7 8 9 10 11 12 13 14 15 16 17 18 19 20 21 22 23 24 25 26 27 28 29 30 31 32 33 34 35 36 37 38 39 40 41 42 43 44 45 46 47 48 49 50
000
ASUS45 KSLC 182110
RWRUT

UTAH REGIONAL WEATHER ROUNDUP
NATIONAL WEATHER SERVICE SALT LAKE CITY UT
300 PM MDT THU SEP 18 2014

UTZ001>011-023>025-182200-

NORTHERN UTAH

CITY           SKY/WX    TMP DP  RH WIND       PRES   REMARKS
HILL AFB       MOSUNNY   89  48  24 S13G23    29.87F
LOGAN          SUNNY     87  51  28 SW14G20   29.83F
OGDEN            N/A     87  47  24 SW7       29.83F
PROVO AIRPORT  SUNNY     86  50  28 VRB5      29.88F
SALT LAKE CITY   N/A     91  45  20 S15G25    29.82F
VERNAL         SUNNY     82  46  28 VRB5      29.97F
WENDOVER         N/A     90  48  24 SE22G28   29.78F
HEBER CITY       N/A     88  43  20 SW10G18   29.93F
WEST JORDAN    SUNNY     88  46  23 S15G23    29.86F

$$

UTZ012>022-026-027-182200-

SOUTHERN UTAH

CITY           SKY/WX    TMP DP  RH WIND       PRES   REMARKS
BRYCE CANYON   PTSUNNY   72  47  40 S15G25    30.14F
CEDAR CITY       N/A     82  49  31 SW16G24   29.95F
MILFORD          N/A     87  49  26 S15G23    29.90F
MOAB/CYNLANDS  SUNNY     89  44  20 MISG      29.89F
PRICE            N/A     84  42  22 S12       30.01F
ST GEORGE        N/A     91  54  27 W5        29.80F

$$

REGIONAL REPORTS     COLORADO/ARIZONA

CITY           SKY/WX    TMP DP  RH WIND       PRES   REMARKS
CRAIG, CO      MOSUNNY   85  38  18 W12       30.02F
GRAND JUNCTION SUNNY     85  44  23 VRB7      29.93F
RIFLE          SUNNY     83  41  22 W5        29.97F
MONTROSE       SUNNY     86  40  19 NW9       30.00F
CORTEZ         SUNNY     83  44  25 S12       30.03F
PAGE, AZ         N/A     88  48  25 N7        29.90F
GRAND CANYON     N/A     78  48  34 W10G20    30.08F
KINGMAN          N/A     88  56  33 W9G20     29.87F
FLAGSTAFF        N/A     73  49  42 MISG      30.11F

$$

REGIONAL REPORTS    NEVADA/IDAHO/WYOMING

CITY           SKY/WX    TMP DP  RH WIND       PRES   REMARKS
LAS VEGAS, NV    N/A     98  34  10 S20G28    29.70F HX  92
ELY              N/A     80  45  28 S16G26    29.95F
ELKO             N/A     76  57  51 E10       29.86F
POCATELLO, ID  PTSUNNY   82  47  29 W16       29.86F
BURLEY           N/A     76  46  34 W12G23    29.85F HAZE
EVANSTON, WY   SUNNY    N/A N/A N/A SW22G30   30.05F
ROCK SPRINGS   MOSUNNY   81  33  17 VRB7G16   30.02F

$$


USA.gov is the U.S. government's official web portal to all federal, state and local government web resources and services.